Weather History for K05U - October, 2013

Change the Weather History Date:

Monday, October 7, 2013

  Actual Average Record
Temperature  
Mean Temperature 54 °F -  
Max Temperature 71 °F - - ()
Min Temperature 37 °F - - ()
Degree Days  
Heating Degree Days 11    
Growing Degree Days 4 (Base 50)    
Moisture  
Dew Point 7 °F    
Average Humidity 17    
Maximum Humidity 36    
Minimum Humidity 7    
Precipitation  
Precipitation 0.00 in - - ()
Sea Level Pressure  
Sea Level Pressure 30.11 in    
Wind  
Wind Speed 4 mph (SSW)    
Max Wind Speed 10 mph    
Max Gust Speed -    
Visibility 10 miles    
Events      
T = Trace of Precipitation, MM = Missing Value Source: NWS Daily Summary

Daily Weather History Graph

Daily Weather History Graph

Search for Another Location

Airport or City:

Trip Planner

Search our weather history database for the weather conditions in past years. The results will help you decide how hot, cold, wet, or windy it might be!

Date:

Astronomy

Oct. 07, 2013 Rise Set
Actual Time 6:46 AM PDT 6:16 PM PDT
Civil Twilight 6:19 AM PDT 6:43 PM PDT
Nautical Twilight 5:48 AM PDT 7:14 PM PDT
Astronomical Twilight 5:16 AM PDT 7:45 PM PDT
Moon 9:40 AM PDT (10/7) 8:05 PM PDT (10/7)
Length of Visible Light 12h 23m
Length of Day
11h 30m
Waxing Crescent, 9% of the Moon is Illuminated
Oct 7
Waxing Crescent
Oct 11
First Quarter
Oct 18
Full
Oct 26
Last Quarter
Nov 3
New

Hourly Weather History & Observations

Time (PDT) Temp. Windchill Dew Point Humidity Pressure Visibility Wind Dir Wind Speed Gust Speed Precip Events Conditions
12:05 AM 50.0 °F - 6.8 °F 17% 30.23 in 10.0 mi Calm Calm - N/A   Clear
12:25 AM 46.4 °F - 6.8 °F 20% 30.22 in 10.0 mi Calm Calm - N/A   Clear
12:45 AM 50.0 °F - 5.0 °F 16% 30.22 in 10.0 mi SSW 5.8 mph - N/A   Clear
1:05 AM 48.2 °F - 5.0 °F 17% 30.22 in 10.0 mi Calm Calm - N/A   Clear
1:25 AM 48.2 °F - 5.0 °F 17% 30.22 in 10.0 mi SSW 6.9 mph - N/A   Clear
1:45 AM 48.2 °F - 5.0 °F 17% 30.22 in 10.0 mi SSW 6.9 mph - N/A   Clear
2:05 AM 44.6 °F 40.7 °F 5.0 °F 20% 30.22 in 10.0 mi South 6.9 mph - N/A   Clear
2:25 AM 44.6 °F 42.2 °F 5.0 °F 20% 30.21 in 10.0 mi SSW 4.6 mph - N/A   Clear
2:45 AM 44.6 °F - 5.0 °F 20% 30.20 in 10.0 mi Calm Calm - N/A   Clear
3:05 AM 39.2 °F 33.6 °F 6.8 °F 26% 30.20 in 10.0 mi SSW 8.1 mph - N/A   Clear
3:25 AM 41.0 °F 36.4 °F 6.8 °F 24% 30.19 in 10.0 mi SSW 6.9 mph - N/A   Clear
3:45 AM 41.0 °F 35.8 °F 5.0 °F 23% 30.19 in 10.0 mi SSW 8.1 mph - N/A   Clear
4:05 AM 39.2 °F 35.0 °F 6.8 °F 26% 30.19 in 10.0 mi SW 5.8 mph - N/A   Clear
4:25 AM 37.4 °F 32.1 °F 6.8 °F 28% 30.18 in 10.0 mi SSW 6.9 mph - N/A   Clear
4:45 AM 39.2 °F 35.0 °F 6.8 °F 26% 30.18 in 10.0 mi WSW 5.8 mph - N/A   Clear
5:05 AM 39.2 °F 33.6 °F 6.8 °F 26% 30.18 in 10.0 mi SSW 8.1 mph - N/A   Clear
5:25 AM 39.2 °F 33.6 °F 6.8 °F 26% 30.17 in 10.0 mi SW 8.1 mph - N/A   Clear
5:45 AM 37.4 °F - 6.8 °F 28% 30.17 in 10.0 mi Calm Calm - N/A   Clear
6:05 AM 39.2 °F 34.2 °F 8.6 °F 28% 30.17 in 10.0 mi SSW 6.9 mph - N/A   Clear
6:25 AM 37.4 °F 31.4 °F 8.6 °F 30% 30.17 in 10.0 mi SSW 8.1 mph - N/A   Clear
6:45 AM 41.0 °F 35.8 °F 8.6 °F 26% 30.16 in 10.0 mi SSW 8.1 mph - N/A   Clear
7:05 AM 41.0 °F 35.2 °F 8.6 °F 26% 30.16 in 10.0 mi SSW 9.2 mph - N/A   Clear
7:25 AM 41.0 °F 36.4 °F 8.6 °F 26% 30.16 in 10.0 mi SW 6.9 mph - N/A   Clear
7:45 AM 41.0 °F 35.8 °F 10.4 °F 29% 30.17 in 10.0 mi SW 8.1 mph - N/A   Clear
8:05 AM 44.6 °F 42.2 °F 8.6 °F 23% 30.17 in 10.0 mi SSW 4.6 mph - N/A   Clear
8:25 AM 48.2 °F - 10.4 °F 22% 30.18 in 10.0 mi Calm Calm - N/A   Clear
8:45 AM 51.8 °F - 8.6 °F 18% 30.18 in 10.0 mi Calm Calm - N/A   Clear
9:05 AM 53.6 °F - 10.4 °F 18% 30.18 in 10.0 mi Calm Calm - N/A   Clear
9:25 AM 53.6 °F - 10.4 °F 18% 30.18 in 10.0 mi Calm Calm - N/A   Clear
9:45 AM 53.6 °F - 14.0 °F 21% 30.18 in 10.0 mi Calm Calm - N/A   Clear
10:05 AM 55.4 °F - 14.0 °F 20% 30.18 in 10.0 mi Calm Calm - N/A   Clear
10:25 AM 57.2 °F - 10.4 °F 16% 30.17 in 10.0 mi Calm Calm - N/A   Clear
10:45 AM 59.0 °F - 8.6 °F 14% 30.17 in 10.0 mi SSW 3.5 mph - N/A   Clear
11:05 AM 62.6 °F - 6.8 °F 11% 30.16 in 10.0 mi Calm Calm - N/A   Clear
11:25 AM 66.2 °F - 5.0 °F 9% 30.15 in 10.0 mi Calm Calm - N/A   Clear
11:45 AM 64.4 °F - 5.0 °F 10% 30.14 in 10.0 mi Calm Calm - N/A   Clear
12:05 PM 66.2 °F - 6.8 °F 10% 30.13 in 10.0 mi Calm Calm - N/A   Clear
12:25 PM 68.0 °F - 5.0 °F 8% 30.13 in 10.0 mi WSW 4.6 mph - N/A   Clear
12:45 PM 66.2 °F - 5.0 °F 9% 30.12 in 10.0 mi Calm Calm - N/A   Clear
1:05 PM 68.0 °F - 5.0 °F 8% 30.11 in 10.0 mi SSW 5.8 mph - N/A   Clear
1:25 PM 68.0 °F - 5.0 °F 8% 30.10 in 10.0 mi SSW 6.9 mph - N/A   Clear
1:45 PM 68.0 °F - 5.0 °F 8% 30.08 in 10.0 mi NW 3.5 mph - N/A   Clear
2:05 PM 68.0 °F - 5.0 °F 8% 30.07 in 10.0 mi Calm Calm - N/A   Clear
2:25 PM 68.0 °F - 3.2 °F 8% 30.07 in 10.0 mi Calm Calm - N/A   Clear
2:45 PM 68.0 °F - 5.0 °F 8% 30.06 in 10.0 mi Calm Calm - N/A   Clear
3:05 PM 69.8 °F - 5.0 °F 8% 30.05 in 10.0 mi NNE 3.5 mph - N/A   Clear
3:25 PM 71.6 °F - 5.0 °F 7% 30.04 in 10.0 mi Calm Calm - N/A   Clear
3:45 PM 71.6 °F - 5.0 °F 7% 30.03 in 10.0 mi WSW 8.1 mph - N/A   Clear
4:05 PM 71.6 °F - 3.2 °F 7% 30.03 in 10.0 mi Calm Calm - N/A   Clear
4:25 PM 69.8 °F - 1.4 °F 7% 30.02 in 10.0 mi WNW 4.6 mph - N/A   Clear
4:45 PM 69.8 °F - 1.4 °F 7% 30.02 in 10.0 mi West 3.5 mph - N/A   Clear
5:05 PM 68.0 °F - 1.4 °F 7% 30.01 in 10.0 mi Calm Calm - N/A   Clear
5:25 PM 68.0 °F - 3.2 °F 8% 30.01 in 10.0 mi West 5.8 mph - N/A   Clear
5:45 PM 66.2 °F - 3.2 °F 8% 30.01 in 10.0 mi Calm Calm - N/A   Clear
6:05 PM - - - N/A% 30.01 in 10.0 mi South 4.6 mph - N/A   Clear
6:25 PM 60.8 °F - 6.8 °F 12% 30.01 in 10.0 mi SSW 4.6 mph - N/A   Clear
6:45 PM 59.0 °F - 5.0 °F 12% 30.01 in 10.0 mi SSW 3.5 mph - N/A   Clear
7:05 PM 57.2 °F - 5.0 °F 12% 30.02 in 10.0 mi WSW 6.9 mph - N/A   Clear
7:25 PM 53.6 °F - 6.8 °F 15% 30.02 in 10.0 mi SSW 5.8 mph - N/A   Clear
7:45 PM 48.2 °F - 6.8 °F 19% 30.02 in 10.0 mi SSW 4.6 mph - N/A   Clear
8:05 PM 46.4 °F 43.5 °F 10.4 °F 23% 30.02 in 10.0 mi SE 5.8 mph - N/A   Clear
8:25 PM 48.2 °F - 8.6 °F 20% 30.02 in 10.0 mi South 6.9 mph - N/A   Clear
8:45 PM 50.0 °F - 6.8 °F 17% 30.02 in 10.0 mi SSW 6.9 mph - N/A   Clear
9:05 PM 53.6 °F - 3.2 °F 13% 30.02 in 10.0 mi SW 6.9 mph - N/A   Clear
9:25 PM 50.0 °F - 10.4 °F 20% 30.02 in 10.0 mi South 10.4 mph - N/A   Scattered Clouds
9:45 PM 51.8 °F - 5.0 °F 15% 30.02 in 10.0 mi SSW 6.9 mph - N/A   Partly Cloudy
10:05 PM 44.6 °F - 8.6 °F 23% 30.02 in 10.0 mi Calm Calm - N/A   Clear
10:25 PM 39.2 °F 35.0 °F 14.0 °F 36% 30.02 in 10.0 mi South 5.8 mph - N/A   Clear
10:45 PM 44.6 °F 40.2 °F 6.8 °F 21% 30.01 in 10.0 mi South 8.1 mph - N/A   Clear
11:05 PM 46.4 °F 42.4 °F 3.2 °F 17% 30.01 in 10.0 mi South 8.1 mph - N/A   Clear
11:25 PM 44.6 °F 40.7 °F 5.0 °F 20% 30.02 in 10.0 mi SSW 6.9 mph - N/A   Clear
11:45 PM 44.6 °F 39.7 °F 3.2 °F 18% 30.01 in 10.0 mi SSW 9.2 mph - N/A   Clear